sat.trackr.live / text

‹ back to catalog

STARLINK-31626

NORAD 59392 · 2024-062U

PAYLOAD ACTIVE UNKNOWN

§ Identity

Operator
Country
US
Launch date
2024-04-02
Launch site
AFWTR
Launch vehicle
Mass (kg)
RCS (m²)

Purposes: comms

External: N2YO · Heavens-Above · Gunter

§ Orbital elements

Epoch: 2026-09-21T18:22:43.799808Z

Period
93.85 min
Inclination
53.1600°
Eccentricity
0.0001087
Mean motion
15.34391308 rev/d
Perigee alt
462.0 km
Apogee alt
463.5 km
Semi-major
6,840.9 km
B*
3.4844e-5
RAAN
61.9226°
Arg perigee
88.5297°
Mean anomaly
271.5831°
Rev number
13,973

§ Raw data

STARLINK-316261 59392U 24062U   26264.76578472  .00000801  00000+0  34844-4 0  99932 59392  53.1600  61.9226 0001087  88.5297 271.5831 15.34391308139733

JSON: /api/v1/satellites/59392 · /tle

For live sub-satellite position, see the globe view (requires WebGL).

§ Visibility from observer

Set your observer location to see the next 7 days of passes ≥ 10°. The values pass through the URL so the page stays shareable.

No JS? Fill the form by hand. The geolocation button needs JavaScript.